DW4513 Weather Reports


time (UTC)temp
F
wind
direction
speed
knots
gust
knots
rain 1hr
in
rain 24hr
in
rain mn
in
humidity
%
barometer
mb
20260504231531 52 142 0.9 7.0 0.00 0.02 0.02 73 1005.8
20260504230030 53 171 0.9 4.3 0.00 0.02 0.02 70 1005.7
20260504224529 55 182 0.0 3.5 0.00 0.02 0.02 68 1005.4
20260504223029 57 182 0.0 4.3 0.00 0.02 0.02 65 1005.1
20260504221528 59 179 1.7 4.3 0.00 0.02 0.02 61 1005.3
20260504220028 61 281 2.6 12.2 0.00 0.02 0.02 56 1005.1
20260504214528 62 218 1.7 5.2 0.00 0.02 0.02 56 1004.9
20260504213026 62 250 0.9 7.0 0.00 0.02 0.02 59 1004.9
20260504211525 62 251 1.7 7.0 0.00 0.02 0.02 59 1005.0
20260504210024 61 217 0.9 8.7 0.00 0.02 0.02 60 1004.9
20260504204525 62 272 4.3 9.6 0.00 0.02 0.02 57 1004.8
20260504203027 61 10 2.6 10.4 0.00 0.02 0.02 59 1004.8
20260504201519 60 265 2.6 7.8 0.00 0.02 0.02 59 1004.8
20260504200019 59 211 1.7 7.0 0.00 0.02 0.02 63 1004.9
20260504194517 60 231 0.9 8.7 0.00 0.03 0.02 66 1004.8
20260504193013 58 161 1.7 6.1 0.00 0.03 0.02 71 1004.9
20260504191509 54 229 1.7 6.1 0.01 0.03 0.02 77 1005.2
20260504190009 53 248 3.5 7.8 0.02 0.03 0.02 76 1005.4
20260504184508 52 194 0.9 6.1 0.02 0.06 0.02 78 1005.7
20260504183007 53 257 2.6 7.8 0.02 0.06 0.02 76 1005.9
20260504181507 54 213 1.7 7.0 0.01 0.05 0.01 71 1005.9
20260504180009 55 242 3.5 7.8 0.00 0.11 0.00 67 1005.7
20260504174506 53 257 0.9 5.2 0.00 0.11 0.00 72 1005.5
20260504173005 49 203 0.0 7.8 0.00 0.11 0.00 77 1005.5
20260504171505 51 153 4.3 8.7 0.00 0.11 0.00 73 1005.2
20260504081548 31 300 0.0 2.6 0.00 0.83 0.00 91 1006.6
20260504050015 34 292 0.0 6.1 0.00 0.94 0.00 84 1005.2
20260504044511 35 304 0.0 4.3 0.00 0.94 0.00 82 1005.1
20260504043007 37 306 0.0 6.1 0.00 0.94 0.00 79 1005.0
20260504041504 37 315 0.0 7.0 0.00 0.94 0.00 78 1004.9
20260504040001 38 266 1.7 7.8 0.00 0.94 0.94 76 1004.7
20260504034600 38 337 2.6 7.0 0.00 0.94 0.94 74 1004.5
20260504033059 39 318 2.6 7.0 0.00 0.94 0.94 74 1004.3
20260504031558 38 318 0.9 6.1 0.00 0.94 0.94 77 1004.2
20260504030056 38 279 0.9 7.0 0.00 0.94 0.94 78 1004.0
20260504024614 38 355 0.9 8.7 0.00 0.94 0.94 78 1003.8
20260504023055 38 273 0.9 7.0 0.00 0.94 0.94 81 1003.9
20260504021552 38 318 1.7 8.7 0.00 0.94 0.94 81 1003.7
20260504020049 39 296 0.9 5.2 0.00 0.94 0.94 81 1003.8
20260504014548 41 319 0.0 7.0 0.00 0.94 0.94 79 1003.5
20260504013048 41 312 1.7 11.3 0.00 0.94 0.94 83 1003.3
20260504011546 40 301 0.9 6.1 0.00 0.94 0.94 90 1003.1
20260504010043 40 315 0.0 3.5 0.00 0.94 0.94 89 1003.0
20260504004547 41 316 0.0 0.0 0.00 0.94 0.94 89 1002.7
20260504003046 42 316 0.0 0.0 0.00 0.94 0.94 89 1002.4
20260504001545 42 313 0.9 3.5 0.00 0.94 0.94 89 1002.2
20260504000111 43 311 0.9 4.3 0.00 0.94 0.94 88 1002.0
20260503234550 43 323 0.0 3.5 0.00 0.94 0.94 87 1001.9
20260503233041 44 326 0.9 6.1 0.00 0.94 0.94 87 1001.6